Location: *
(50.5492°N, 7.7469°E)
Time: 20:25:52
(UTC+00:00)

In-Cosmos 22 Rocket - Visible Passes

Search period start: 20 January 2020 00:00
Search period end: 30 January 2020 00:00
Orbit: 790 x 888 km, 81.2° (Epoch: 20 January)

Date Brightness Start Highest point End Pass type
(mag) Time Alt. Az. Time Alt. Az. Time Alt. Az.
20 Jan 6.4 05:15:21 10° N 05:19:31 22° ENE 05:23:36 10° ESE visible
21 Jan 6.5 05:00:05 10° NNE 05:03:57 19° ENE 05:07:46 10° ESE visible
21 Jan 4.1 06:41:55 10° NNW 06:47:21 77° W 06:52:39 10° S visible
22 Jan 6.7 04:44:51 10° NNE 04:48:24 17° ENE 04:51:53 10° E visible
22 Jan 4.1 06:26:29 10° NNW 06:31:55 87° W 06:37:14 10° S visible
23 Jan 6.8 04:29:41 10° NNE 04:32:50 15° NE 04:35:55 10° E visible
23 Jan 4.2 06:11:03 10° N 06:16:28 82° ENE 06:21:47 10° SSE visible
24 Jan 6.8 04:14:35 10° NNE 04:17:14 14° NE 04:19:52 10° E visible
24 Jan 4.4 05:55:37 10° N 06:01:01 72° ENE 06:06:19 10° SSE visible
25 Jan 6.9 03:59:36 10° NNE 04:01:39 12° NE 04:03:40 10° ENE visible
25 Jan 4.6 05:40:12 10° N 05:45:34 63° ENE 05:50:49 10° SSE visible
25 Jan 6.2 18:52:24 10° S 18:53:09 14° S 18:53:09 14° S visible
26 Jan 7.1 03:44:57 10° NE 03:46:02 11° NE 03:47:07 10° ENE visible
26 Jan 4.8 05:24:48 10° N 05:30:05 55° ENE 05:35:17 10° SSE visible
26 Jan 5.4 18:37:06 10° SSE 18:39:38 26° SSE 18:39:38 26° SSE visible
26 Jan 6.6 20:20:25 10° SW 20:21:32 15° WSW 20:21:32 15° WSW visible
27 Jan 5.0 05:09:24 10° N 05:14:37 48° ENE 05:19:44 10° SE visible
27 Jan 4.6 18:21:52 10° SSE 18:26:19 39° ESE 18:26:19 39° ESE visible
27 Jan 5.8 20:04:46 10° SW 20:08:14 29° WSW 20:08:14 29° WSW visible
28 Jan 5.3 04:54:02 10° N 04:59:07 42° ENE 05:04:09 10° SE visible
28 Jan 4.6 18:06:39 10° SSE 18:11:45 36° E 18:13:16 31° ENE visible
28 Jan 5.4 19:49:09 10° SW 19:54:24 40° WNW 19:55:12 37° NW visible
29 Jan 5.5 04:38:40 10° N 04:43:37 37° ENE 04:48:31 10° SE visible
29 Jan 4.7 06:21:27 10° NNW 06:26:18 36° W 06:31:05 10° SSW visible
29 Jan 4.8 17:51:29 10° SSE 17:56:23 32° E 18:00:44 12° NNE visible
29 Jan 5.1 19:33:33 10° SW 19:38:55 45° WNW 19:42:45 18° N visible
